{"data":{"norad_id":56792,"intl_designator":"2023-078AB","name":"STARLINK-6046","alt_names":[],"object_type":"PAYLOAD","status":"ACTIVE","operator":null,"country":"US","launch_date":"2023-05-31","launch_site_code":"AFWTR","launch_vehicle":null,"mission":null,"orbit_class":"UNKNOWN","rcs_meters":null,"size_class":null,"mass_kg":null,"dimensions":null,"purposes":["comms"],"wikipedia_slug":null,"has_3d_model":false,"image_url":null,"decayed_at":null,"tle_current":{"epoch":"2026-05-25T02:39:41.967360Z","epoch_age_seconds":62159,"freshness":"FRESH","line1":"1 56792U 23078AB  26145.11090240  .00000396  00000+0  41034-4 0  9997","line2":"2 56792  69.9988 151.9221 0004125 277.7877  82.2813 14.98327999164127","mean_motion":14.98327999,"eccentricity":0.0004125,"inclination_deg":69.9988,"raan_deg":151.9221,"arg_perigee_deg":277.7877,"mean_anomaly_deg":82.2813,"bstar":4.1034e-5,"rev_number":16412,"period_min":96.107127475497,"perigee_km":569.1951217587,"apogee_km":574.92903599878,"semimajor_km":6950.1990788787,"source":"CELESTRAK","updated_at":"2026-05-25T13:38:18.156573Z"}}}